Rawlins, WY

3:26 AM MDT on April 30, 2017 (GMT -0600)
Rawlins Municipal

Weather History for KRWL - January, 2014

Change the Weather History Date:

Wednesday, January 22, 2014

  Actual Average Record
Temperature  
Mean Temperature 25 °F 22 °F  
Max Temperature 36 °F 31 °F 52 °F (1981)
Min Temperature 13 °F 12 °F -34 °F (1962)
Degree Days  
Heating Degree Days 40 43  
Month to date heating degree days 890 946  
Since 1 July heating degree days 4279 4400  
Cooling Degree Days 0 0  
Month to date cooling degree days 0 0  
Year to date cooling degree days 0 0  
Moisture  
Dew Point 15 °F    
Average Humidity 64    
Maximum Humidity 92    
Minimum Humidity 35    
Precipitation  
Precipitation T in 0.01 in 0.27 in (1965)
Month to date precipitation 0.06 0.27  
Year to date precipitation 0.06 0.27  
Sea Level Pressure  
Sea Level Pressure 30.15 in    
Wind  
Wind Speed 9 mph (NE)    
Max Wind Speed 21 mph    
Max Gust Speed 28 mph    
Visibility 7 miles    
Events Snow    
T = Trace of Precipitation, MM = Missing Value Source: NWS Daily Summary

Daily Weather History Graph

Daily Weather History Graph

Search for Another Location

Airport or City:

Trip Planner

Search our weather history database for the weather conditions in past years. The results will help you decide how hot, cold, wet, or windy it might be!

Date:

Astronomy

Jan. 22, 2014 Rise Set
Actual Time 7:29 AM MST 5:11 PM MST
Civil Twilight 6:59 AM MST 5:41 PM MST
Nautical Twilight 6:25 AM MST 6:15 PM MST
Astronomical Twilight 5:52 AM MST 6:48 PM MST
Moon 11:53 PM MST (1/22) 10:26 AM MST (1/22)
Length of Visible Light 10h 42m
Length of Day
9h 41m
Waning Gibbous, 65% of the Moon is Illuminated
Jan 22
Waning Gibbous
Jan 23
Last Quarter
Jan 30
New
Feb 6
First Quarter
Feb 14
Full

Hourly Weather History & Observations

Time (MST) Temp. Windchill Dew Point Humidity Pressure Visibility Wind Dir Wind Speed Gust Speed Precip Events Conditions
12:53 AM 30.0 °F 21.1 °F 9.0 °F 41% 30.20 in 10.0 mi WSW 10.4 mph 18.4 mph N/A   Clear
1:53 AM 30.9 °F 20.2 °F 9.0 °F 40% 30.17 in 10.0 mi West 15.0 mph 24.2 mph N/A   Clear
2:53 AM 27.0 °F 18.7 °F 9.0 °F 47% 30.18 in 10.0 mi SW 8.1 mph - N/A   Clear
3:53 AM 27.0 °F 18.7 °F 9.0 °F 47% 30.18 in 10.0 mi SW 8.1 mph - N/A   Clear
4:53 AM 19.9 °F 12.1 °F 9.0 °F 62% 30.21 in 10.0 mi South 5.8 mph - N/A   Clear
5:53 AM 18.0 °F 11.1 °F 8.1 °F 65% 30.22 in 10.0 mi Variable 4.6 mph - N/A   Clear
6:53 AM 17.1 °F 7.6 °F 8.1 °F 68% 30.25 in 10.0 mi NNW 6.9 mph - N/A   Clear
7:53 AM 17.1 °F 10.0 °F 9.0 °F 71% 30.25 in 10.0 mi West 4.6 mph - N/A   Clear
8:53 AM 25.0 °F - 10.0 °F 53% 30.19 in 10.0 mi Calm Calm - N/A   Clear
9:53 AM 27.0 °F 23.0 °F 10.9 °F 51% 30.18 in 10.0 mi SSE 3.5 mph - N/A   Clear
10:53 AM 32.0 °F - 10.9 °F 42% 30.14 in 10.0 mi Calm Calm - N/A   Clear
11:53 AM 35.1 °F 31.0 °F 15.1 °F 44% 30.08 in 10.0 mi NNE 4.6 mph - N/A   Clear
12:53 PM 36.0 °F 29.6 °F 12.0 °F 37% 30.03 in 10.0 mi NW 8.1 mph - N/A   Clear
1:53 PM 35.1 °F 29.3 °F 10.9 °F 37% 30.01 in 10.0 mi WNW 6.9 mph - N/A   Mostly Cloudy
2:53 PM 32.0 °F 23.0 °F 15.1 °F 50% 30.03 in 10.0 mi NNE 11.5 mph - N/A   Clear
3:53 PM 33.1 °F 25.5 °F 15.1 °F 48% 30.05 in 10.0 mi North 9.2 mph - N/A   Clear
4:53 PM 30.0 °F 21.7 °F 16.0 °F 56% 30.10 in 10.0 mi NE 9.2 mph - N/A   Overcast
5:53 PM 28.9 °F 19.2 °F 17.1 °F 61% 30.14 in 10.0 mi NNE 11.5 mph - N/A   Overcast
6:53 PM 27.0 °F 15.2 °F 19.9 °F 75% 30.19 in 10.0 mi NE 15.0 mph 23.0 mph N/A   Overcast
7:30 PM 26.6 °F 16.2 °F 21.2 °F 80% 30.07 in 1.8 mi NE 11.5 mph - 0.00 in Snow Light Snow
7:53 PM 26.1 °F 16.2 °F 21.9 °F 84% 30.21 in 2.5 mi NE 10.4 mph - 0.00 in Snow Light Snow
8:00 PM 26.6 °F 16.2 °F 21.2 °F 80% 30.08 in 3.0 mi NNE 11.5 mph - 0.00 in Snow Light Snow
8:25 PM 24.8 °F 13.4 °F 21.2 °F 86% 30.09 in 1.8 mi NE 12.7 mph - 0.00 in Snow Light Snow
8:42 PM 24.8 °F 11.5 °F 21.2 °F 86% 30.09 in 2.0 mi NE 17.3 mph - 0.00 in Snow Light Snow
8:53 PM 24.1 °F 12.0 °F 19.9 °F 84% 30.20 in 2.0 mi NE 13.8 mph - 0.00 in Snow Light Snow
8:57 PM 23.0 °F 11.1 °F 19.4 °F 86% 30.10 in 1.8 mi ENE 12.7 mph - 0.00 in Snow Light Snow
9:07 PM 23.0 °F 11.1 °F 19.4 °F 86% 30.11 in 1.8 mi ENE 12.7 mph - 0.00 in Snow Light Snow
9:20 PM 21.2 °F 8.3 °F 19.4 °F 93% 30.11 in 2.0 mi ENE 13.8 mph 21.9 mph 0.00 in Snow Light Snow
9:29 PM 21.2 °F 8.9 °F 19.4 °F 93% 30.12 in 3.0 mi ENE 12.7 mph - 0.00 in Snow Light Snow
9:45 PM 21.2 °F 8.9 °F 19.4 °F 93% 30.13 in 2.5 mi NE 12.7 mph 20.7 mph 0.00 in Snow Light Snow
9:53 PM 21.9 °F 7.8 °F 19.0 °F 89% 30.23 in 2.5 mi NE 17.3 mph 21.9 mph 0.00 in Snow Light Snow
10:00 PM 21.2 °F 7.3 °F 17.6 °F 86% 30.13 in 3.0 mi NE 16.1 mph 21.9 mph 0.00 in Snow Light Snow
10:53 PM 19.9 °F 7.3 °F 16.0 °F 85% 30.24 in 5.0 mi ENE 12.7 mph - 0.00 in Snow Light Snow
11:00 PM 19.4 °F 5.5 °F 15.8 °F 86% 30.16 in 5.0 mi ENE 15.0 mph - 0.00 in Snow Light Snow
11:53 PM 19.0 °F 7.5 °F 15.1 °F 85% 30.26 in 10.0 mi ENE 10.4 mph - 0.00 in   Overcast